DeKalb, IL

10:59 PM CDT on June 25, 2017 (GMT -0500)
De Kalb Taylor Municipal

Weather History for KDKB - November, 2012

Change the Weather History Date:

Sunday, November 25, 2012

  Actual Average (KARR) Record (KARR)
Temperature  
Mean Temperature 33 °F -  
Max Temperature 43 °F 42 °F 58 °F (2006)
Min Temperature 23 °F 27 °F 8 °F (2004)
Degree Days  
Heating Degree Days 32    
Moisture  
Dew Point 25 °F    
Average Humidity 69    
Maximum Humidity 86    
Minimum Humidity 47    
Precipitation  
Precipitation 0.00 in - - ()
Sea Level Pressure  
Sea Level Pressure 29.91 in    
Wind  
Wind Speed 10 mph (West)    
Max Wind Speed 15 mph    
Max Gust Speed 17 mph    
Visibility 10 miles    
Events      
Averages and records for this station are not official NWS values.
T = Trace of Precipitation, MM = Missing Value Source: NWS Daily Summary

Daily Weather History Graph

Daily Weather History Graph

Search for Another Location

Airport or City:

Trip Planner

Search our weather history database for the weather conditions in past years. The results will help you decide how hot, cold, wet, or windy it might be!

Date:

Astronomy

Nov. 25, 2012 Rise Set
Actual Time 6:57 AM CST 4:26 PM CST
Civil Twilight 6:26 AM CST 4:57 PM CST
Nautical Twilight 5:51 AM CST 5:31 PM CST
Astronomical Twilight 5:18 AM CST 6:05 PM CST
Moon 2:45 PM CST (11/25) 4:09 AM CST (11/25)
Length of Visible Light 10h 31m
Length of Day
9h 29m
Waxing Gibbous, 93% of the Moon is Illuminated
Nov 25
Waxing Gibbous
Nov 28
Full
Dec 6
Last Quarter
Dec 13
New
Dec 19
First Quarter

Hourly Weather History & Observations

Time (CST) Temp. Windchill Dew Point Humidity Pressure Visibility Wind Dir Wind Speed Gust Speed Precip Events Conditions
12:15 AM 30.6 °F 20.7 °F 23.9 °F 76% 29.93 in 10.0 mi South 12.7 mph - N/A   Mostly Cloudy
12:35 AM 30.7 °F 20.9 °F 24.3 °F 77% 29.92 in 10.0 mi South 12.7 mph - N/A   Mostly Cloudy
12:55 AM 31.1 °F 21.4 °F 24.4 °F 76% 29.91 in 10.0 mi South 12.7 mph - N/A   Mostly Cloudy
1:15 AM 31.1 °F 20.9 °F 24.6 °F 77% 29.89 in 10.0 mi South 13.8 mph - N/A   Mostly Cloudy
1:35 AM 30.9 °F 20.2 °F 24.6 °F 77% 29.88 in 10.0 mi South 15.0 mph - N/A   Mostly Cloudy
1:55 AM 31.1 °F 20.5 °F 24.8 °F 77% 29.87 in 10.0 mi South 15.0 mph - N/A   Scattered Clouds
2:15 AM 32.0 °F 22.1 °F 24.8 °F 75% 29.87 in 10.0 mi South 13.8 mph - N/A   Mostly Cloudy
2:35 AM 31.6 °F 21.2 °F 25.2 °F 77% 29.85 in 10.0 mi South 15.0 mph - N/A   Mostly Cloudy
2:55 AM 31.6 °F 21.6 °F 25.3 °F 78% 29.84 in 10.0 mi South 13.8 mph - N/A   Mostly Cloudy
3:15 AM 31.6 °F 22.1 °F 25.2 °F 77% 29.85 in 10.0 mi South 12.7 mph - N/A   Overcast
3:35 AM 31.6 °F 22.6 °F 25.3 °F 78% 29.84 in 10.0 mi South 11.5 mph - N/A   Overcast
3:55 AM 31.1 °F 23.1 °F 24.8 °F 77% 29.85 in 10.0 mi SSW 9.2 mph - N/A   Scattered Clouds
4:15 AM 30.7 °F 22.6 °F 24.8 °F 79% 29.84 in 10.0 mi SSW 9.2 mph - N/A   Clear
4:35 AM 30.2 °F 23.4 °F 24.8 °F 80% 29.84 in 10.0 mi South 6.9 mph - N/A   Clear
4:55 AM 30.0 °F 24.1 °F 24.8 °F 81% 29.84 in 10.0 mi SSW 5.8 mph - N/A   Clear
5:15 AM 28.9 °F 23.9 °F 24.1 °F 82% 29.84 in 10.0 mi South 4.6 mph - N/A   Clear
5:35 AM 27.0 °F 21.6 °F 22.8 °F 84% 29.84 in 10.0 mi SSW 4.6 mph - N/A   Clear
5:55 AM 27.5 °F 22.2 °F 23.4 °F 84% 29.84 in 10.0 mi SSW 4.6 mph - N/A   Clear
6:35 AM 26.4 °F 20.9 °F 22.6 °F 86% 29.84 in 10.0 mi SW 4.6 mph - N/A   Clear
6:55 AM 26.1 °F 21.9 °F 21.2 °F 82% 29.84 in 10.0 mi SW 3.5 mph - N/A   Clear
7:15 AM 23.5 °F 17.6 °F 19.8 °F 85% 29.85 in 10.0 mi SSW 4.6 mph - N/A   Clear
7:35 AM 24.4 °F 20.1 °F 20.8 °F 86% 29.85 in 10.0 mi SW 3.5 mph - N/A   Clear
7:55 AM 28.4 °F 22.2 °F 24.4 °F 85% 29.86 in 10.0 mi SW 5.8 mph - N/A   Clear
8:15 AM 31.6 °F 23.7 °F 25.3 °F 78% 29.86 in 10.0 mi West 9.2 mph - N/A   Clear
8:35 AM 33.1 °F 25.5 °F 25.7 °F 74% 29.86 in 10.0 mi West 9.2 mph - N/A   Clear
8:55 AM 34.5 °F 26.7 °F 25.5 °F 70% 29.86 in 10.0 mi West 10.4 mph - N/A   Clear
9:15 AM 35.6 °F 28.0 °F 25.2 °F 66% 29.87 in 10.0 mi WNW 10.4 mph 17.3 mph N/A   Clear
9:35 AM 36.7 °F 28.9 °F 25.2 °F 63% 29.87 in 10.0 mi WNW 11.5 mph - N/A   Clear
9:55 AM 37.0 °F 29.3 °F 25.2 °F 62% 29.88 in 10.0 mi NW 11.5 mph - N/A   Clear
10:15 AM 37.6 °F 30.5 °F 24.8 °F 60% 29.89 in 10.0 mi WNW 10.4 mph - N/A   Clear
10:35 AM 37.9 °F 31.5 °F 24.3 °F 58% 29.89 in 10.0 mi NW 9.2 mph - N/A   Clear
10:55 AM 38.7 °F 33.6 °F 24.4 °F 57% 29.88 in 10.0 mi WNW 6.9 mph - N/A   Clear
11:15 AM 39.2 °F 34.2 °F 24.3 °F 55% 29.87 in 10.0 mi NW 6.9 mph - N/A   Clear
11:35 AM 39.2 °F 33.0 °F 24.3 °F 55% 29.88 in 10.0 mi West 9.2 mph - N/A   Clear
11:55 AM 40.3 °F 34.4 °F 24.4 °F 53% 29.88 in 10.0 mi West 9.2 mph - N/A   Clear
12:15 PM 41.0 °F 34.3 °F 24.6 °F 52% 29.87 in 10.0 mi West 11.5 mph - N/A   Clear
12:35 PM 41.4 °F 34.7 °F 24.8 °F 52% 29.87 in 10.0 mi WNW 11.5 mph - N/A   Clear
12:55 PM 41.7 °F 34.8 °F 24.1 °F 50% 29.88 in 10.0 mi West 12.7 mph - N/A   Clear
1:15 PM 42.8 °F 37.0 °F 24.1 °F 48% 29.88 in 10.0 mi WNW 10.4 mph 17.3 mph N/A   Clear
1:35 PM 43.3 °F 37.7 °F 24.1 °F 47% 29.87 in 10.0 mi NW 10.4 mph 17.3 mph N/A   Clear
1:55 PM 43.0 °F 37.7 °F 23.9 °F 47% 29.87 in 10.0 mi NW 9.2 mph - N/A   Clear
2:15 PM 42.8 °F 36.2 °F 24.1 °F 48% 29.88 in 10.0 mi WNW 12.7 mph 17.3 mph N/A   Clear
2:35 PM 42.3 °F 35.9 °F 24.8 °F 50% 29.89 in 10.0 mi WNW 11.5 mph - N/A   Clear
2:55 PM 41.9 °F 35.4 °F 24.3 °F 50% 29.89 in 10.0 mi NW 11.5 mph - N/A   Clear
3:15 PM 41.4 °F 35.2 °F 23.9 °F 50% 29.90 in 10.0 mi WNW 10.4 mph - N/A   Clear
3:35 PM 41.0 °F 33.9 °F 24.4 °F 52% 29.91 in 10.0 mi West 12.7 mph - N/A   Clear
3:55 PM 39.4 °F 33.2 °F 24.4 °F 55% 29.92 in 10.0 mi WNW 9.2 mph - N/A   Clear
4:15 PM 38.3 °F 31.9 °F 24.6 °F 58% 29.93 in 10.0 mi WNW 9.2 mph - N/A   Clear
4:35 PM 35.8 °F 30.1 °F 24.6 °F 64% 29.94 in 10.0 mi WNW 6.9 mph - N/A   Clear
4:55 PM 34.5 °F 28.6 °F 24.6 °F 67% 29.94 in 10.0 mi NW 6.9 mph - N/A   Clear
5:15 PM 35.1 °F 29.3 °F 24.6 °F 66% 29.95 in 10.0 mi NW 6.9 mph - N/A   Clear
5:35 PM 32.5 °F 26.2 °F 23.9 °F 70% 29.95 in 10.0 mi WNW 6.9 mph - N/A   Clear
5:55 PM 33.1 °F 26.9 °F 24.8 °F 72% 29.96 in 10.0 mi NW 6.9 mph - N/A   Clear
6:15 PM 32.5 °F 25.5 °F 24.8 °F 73% 29.97 in 10.0 mi WNW 8.1 mph - N/A   Clear
6:35 PM 32.9 °F 25.3 °F 25.2 °F 73% 29.99 in 10.0 mi WNW 9.2 mph - N/A   Clear
6:55 PM 34.3 °F 27.0 °F 25.7 °F 71% 29.98 in 10.0 mi WNW 9.2 mph - N/A   Clear
7:15 PM 35.1 °F 26.4 °F 26.2 °F 70% 29.99 in 10.0 mi WNW 12.7 mph - N/A   Clear
7:35 PM 34.3 °F 26.5 °F 25.9 °F 71% 30.00 in 10.0 mi WNW 10.4 mph - N/A   Clear
7:55 PM 34.3 °F 26.5 °F 26.2 °F 72% 30.01 in 10.0 mi WNW 10.4 mph - N/A   Clear
8:15 PM 34.3 °F 27.0 °F 26.4 °F 73% 30.01 in 10.0 mi WNW 9.2 mph - N/A   Scattered Clouds
8:35 PM 34.3 °F 27.0 °F 26.4 °F 73% 30.01 in 10.0 mi NW 9.2 mph - N/A   Scattered Clouds
8:55 PM 34.3 °F 26.5 °F 26.4 °F 73% 30.01 in 10.0 mi WNW 10.4 mph - N/A   Clear
9:15 PM 34.2 °F 27.5 °F 26.4 °F 73% 30.02 in 10.0 mi WNW 8.1 mph - N/A   Clear
9:35 PM 34.0 °F 27.2 °F 26.4 °F 74% 30.03 in 10.0 mi WNW 8.1 mph - N/A   Clear
9:55 PM 33.8 °F 27.0 °F 26.6 °F 75% 30.04 in 10.0 mi WNW 8.1 mph - N/A   Clear
10:15 PM 33.8 °F 27.0 °F 26.4 °F 74% 30.04 in 10.0 mi NW 8.1 mph - N/A   Clear
10:35 PM 33.8 °F 27.7 °F 25.5 °F 72% 30.04 in 10.0 mi NW 6.9 mph - N/A   Clear
10:55 PM 33.3 °F 27.9 °F 25.3 °F 73% 30.05 in 10.0 mi NW 5.8 mph - N/A   Clear
11:15 PM 32.5 °F 27.1 °F 25.5 °F 75% 30.06 in 10.0 mi NW 5.8 mph - N/A   Clear
11:35 PM 30.7 °F 24.9 °F 24.6 °F 78% 30.06 in 10.0 mi NW 5.8 mph - N/A   Clear
11:55 PM 31.6 °F 25.1 °F 25.3 °F 78% 30.07 in 10.0 mi NW 6.9 mph - N/A   Clear